Погода в Совхозном

Россия / Удмуртская Республика     56°41′08″N   53°06′25″E
темп.,
°C
ветер,
м/с
пор.,
м/с
влажн.,
%
обл.,
%
осадки,
мм/ч
давл.,
гПа
погр.,
м
14 июня, пн
пн1401:00+15ююв369428 0.0 1015107
04:00+14ююв2393100 0.0 101642
07:00+18ююв3585100 0.0 1016200
10:00+22ю4567100 0.0 1016532
13:00+25ююз345743 0.0 1016919
16:00+26ююз455699 0.0 10151408
19:00+24ю247479 0.2 101481
22:00+19з238496 0.5 101436
15 июня, вт
вт1501:00+17сз2293100 0.3 101426
04:00+16зсз1193100 0.6 101411
07:00+19юз118540 0.1 1015172
10:00+23зюз227138 1.4 1015635
13:00+25зюз2355100 0.0 10141406
16:00+26зюз345180 0.0 10141315
19:00+23ююз3572100 0.2 1014107
22:00+18юз228944 0.3 101435
16 июня, ср
ср1601:00+16ююз22905 0.3 101312
04:00+16ююв1191100 0.3 101311
07:00+20ююв248697 0.0 1013203
10:00+24юв4668100 0.0 1011555
13:00+26юв5859100 0.0 1009936
16:00+26ю685861 0.0 10081049
19:00+23ююз510780 0.6 1006365
22:00+18юз31092100 2.0 1006201
17 июня, чт
чт1701:00+17сз489771 1.6 1005250
04:00+15ссз51093100 1.6 1008578
07:00+15ссз6119011 0.1 1010654
10:00+18ссз695975 0.1 10111421
13:00+20ссз68435 0.0 10132103
16:00+20ссз68435 0.0 10142291
19:00+18ссз59520 0.0 1015477
22:00+12сз377543 0.0 1017120
18 июня, пт
пт1801:00+11ссз37835 0.0 1018131
04:00+9ссз34905 0.0 102073
07:00+13ссз357294 0.0 1021313
10:00+18ссз56535 0.0 10211460
13:00+20ссз784044 0.0 10212502
16:00+20ссз584462 0.0 10212672
19:00+18ссз59525 0.0 1022463
22:00+12сз357074 0.0 102465